Location: B�rgermoos
(47.6500°N, 9.0667°E)
Time: 09:28:42
(UTC+00:00)

A-11 Canister half - Pass Details

Date: 03 August 2021
Orbit: 1526 x 1683 km, 47.3° (Epoch: 20 September)

Event Time Altitude Azimuth Distance (km) Brightness Sun altitude
Rises 11:27:59 0° 248° (WSW) 4,931 11.8 59.7°
Reaches altitude 10° 11:31:09 10° 247° (WSW) 3,942 11.5 59.7°
Maximum altitude 11:41:18 79° 164° (SSE) 1,694 10.9 59.6°
Drops below altitude 10° 11:51:15 10° 79° (E) 3,870 11.1 59.4°
Sets 11:54:20 0° 79° (E) 4,837 11.5 59.3°
